Weather History for Yellowstone, WY

Change the Weather History Date:

Thursday, October 10, 2013

  Actual Average Record
Temperature  
Mean Temperature 38 °F 38 °F  
Max Temperature 49 °F 51 °F 61 °F (2007)
Min Temperature 26 °F 25 °F -6 °F (2009)
Degree Days  
Heating Degree Days 27 27  
Month to date heating degree days 313 255  
Since 1 July heating degree days 1266 1390  
Cooling Degree Days 0 0  
Month to date cooling degree days 0 0  
Year to date cooling degree days 0 0  
Moisture  
Dew Point 30 °F    
Average Humidity 75    
Maximum Humidity 100    
Minimum Humidity 49    
Precipitation  
Precipitation 0.18 in 0.04 in 0.59 in (2003)
Month to date precipitation 0.89 0.36  
Year to date precipitation 17.14 15.73  
Sea Level Pressure  
Sea Level Pressure 29.79 in    
Wind  
Wind Speed 2 mph (NW)    
Max Wind Speed 9 mph    
Max Gust Speed 16 mph    
T = Trace of Precipitation, MM = Missing Value Source: NWS Daily Summary

Daily Weather History Graph

Daily Weather History Graph

Search for Another Location

Airport:

Trip Planner

Search our weather history database for the weather conditions in past years. The results will help you decide how hot, cold, wet, or windy it might be!

Date:

Astronomy

Oct. 10, 2013 Rise Set
Actual Time 7:30 AM MDT 6:45 PM MDT
Civil Twilight 7:01 AM MDT 7:14 PM MDT
Nautical Twilight 6:28 AM MDT 7:48 PM MDT
Astronomical Twilight 5:54 AM MDT 8:22 PM MDT
Moon 1:34 PM MDT (10/10) 11:18 PM MDT (10/10)
Length of Visible Light 12h 12m
Length of Day
11h 14m
Waxing Crescent, 36% of the Moon is Illuminated
Oct 10
Waxing Crescent
Oct 11
First Quarter
Oct 18
Full
Oct 26
Last Quarter
Nov 3
New

Hourly Weather History & Observations

Time (MDT) Temp. Windchill Dew Point Humidity Pressure Visibility Wind Dir Wind Speed Gust Speed Precip Events Conditions
12:56 AM 28.0 °F - 26.1 °F 92% 29.89 in - Calm Calm - N/A   Unknown
1:56 AM 28.9 °F - 27.0 °F 92% 29.88 in - Calm Calm - N/A   Unknown
2:56 AM 28.0 °F - 27.0 °F 96% 29.88 in - Calm Calm - N/A   Unknown
3:56 AM 27.0 °F - 25.0 °F 92% 29.85 in - Calm Calm - N/A   Unknown
4:56 AM 26.1 °F - 25.0 °F 96% 29.84 in - Calm Calm - N/A   Unknown
5:56 AM 26.1 °F - 25.0 °F 96% 29.83 in - Calm Calm - N/A   Unknown
6:56 AM 27.0 °F - 26.1 °F 96% 29.86 in - Calm Calm - N/A   Unknown
7:56 AM 27.0 °F 23.0 °F 25.0 °F 92% 29.87 in - NNW 3.5 mph - N/A   Unknown
8:56 AM 28.9 °F - 28.0 °F 96% 29.87 in - Calm Calm - N/A   Unknown
9:56 AM 34.0 °F - 32.0 °F 92% 29.83 in - Calm Calm - N/A   Unknown
10:56 AM 39.9 °F - 32.0 °F 73% 29.79 in - Calm Calm - N/A   Unknown
11:56 AM 43.0 °F - 30.9 °F 62% 29.76 in - Calm Calm - N/A   Unknown
12:56 PM 46.9 °F - 30.0 °F 52% 29.71 in - Calm Calm - N/A   Unknown
1:56 PM 46.0 °F 44.8 °F 33.1 °F 61% 29.68 in - ESE 3.5 mph - N/A   Unknown
2:56 PM 46.9 °F - 35.1 °F 63% 29.68 in - Calm Calm - N/A   Unknown
3:56 PM 48.0 °F - 30.9 °F 52% 29.67 in - Calm Calm - N/A   Unknown
4:56 PM 46.0 °F 43.9 °F 28.0 °F 50% 29.70 in - Variable 4.6 mph - N/A   Unknown
5:56 PM 39.0 °F 34.8 °F 35.1 °F 86% 29.75 in - Variable 5.8 mph - 0.02 in   Unknown
6:56 PM 37.0 °F 32.4 °F 34.0 °F 89% 29.78 in - Variable 5.8 mph - 0.01 in   Unknown
7:56 PM 35.1 °F - 34.0 °F 96% 29.81 in - Calm Calm - 0.07 in   Unknown
8:56 PM 35.1 °F 28.6 °F 33.1 °F 92% 29.81 in - NW 8.1 mph - 0.06 in   Unknown
9:56 PM 35.1 °F 30.1 °F 33.1 °F 92% 29.79 in - WNW 5.8 mph - 0.02 in   Unknown
10:56 PM 35.1 °F - 33.1 °F 92% 29.77 in - Calm Calm - N/A   Unknown
11:56 PM 34.0 °F - 32.0 °F 92% 29.76 in - Calm Calm - N/A   Unknown